This demonstration page uses our WeatherBlox Daily Observations layout. Learn more.

Left ArrowRight Arrow

41.86663, -103.66717

Hourly Observations for April 12, 2017

Temp ( °F °C ) Dew Point ( °F °C ) Humidity (%) Winds ( mph kmh ) Pressure ( in mb ) Visibility ( mi km ) Precip ( " mm )
12:53 am 00:53 Clear 45 7.2 27 -2.8 49 49 NE 15 24 29.95 1014 10 16.0934 N/A
1:53 am 01:53 Clear 43 6.1 28 -2.2 56 56 ENE 13 20 29.92 1013 10 16.0934 N/A
2:53 am 02:53 Clear 40 4.4 28 -2.2 63 63 E 5 7 29.92 1013 10 16.0934 N/A
3:53 am 03:53 Clear 36 2.2 28 -2.2 73 73 NNW 6 9 29.95 1014 10 16.0934 N/A
4:53 am 04:53 Clear 39 3.9 32 undefined 76 76 NW 6 9 29.94 1014 10 16.0934 N/A
5:53 am 05:53 Mostly Clear 35 1.7 30 -1.1 82 82 WNW 7 11 29.98 1015 10 16.0934 N/A
6:53 am 06:53 Sunny 37 2.8 32 undefined 82 82 W 8 13 30.01 1016 10 16.0934 N/A
7:53 am 07:53 Sunny 41 5 33 0.6 73 73 WNW 13 20 30.06 1018 10 16.0934 N/A
8:53 am 08:53 Sunny 47 8.3 35 1.7 63 63 WNW 7 11 30.05 1018 10 16.0934 N/A
9:53 am 09:53 Sunny 52 11.1 36 2.2 55 55 WNW 12 19 30.06 1018 10 16.0934 N/A
10:53 am 10:53 Sunny 57 13.9 35 1.7 44 44 W 12 19 30.06 1018 10 16.0934 N/A
11:53 am 11:53 Sunny 62 16.7 35 1.7 37 37 WNW 10 17 30.04 1017 10 16.0934 N/A
12:53 pm 12:53 Sunny 68 20 31 -0.6 25 25 WNW 14 22 30.02 1017 10 16.0934 N/A
1:53 pm 13:53 Sunny 69 20.6 29 -1.7 22 22 NNW 10 17 30.01 1016 10 16.0934 N/A
2:53 pm 14:53 Sunny 71 21.7 28 -2.2 20 20 undefined N/A 30 1016 10 16.0934 N/A
3:53 pm 15:53 Sunny 71 21.7 29 -1.7 21 21 N N/A 30.01 1016 10 16.0934 N/A
4:53 pm 16:53 Sunny 69 20.6 32 undefined 25 25 ENE 16 26 30.02 1017 10 16.0934 N/A
5:53 pm 17:53 Sunny 66 18.9 32 undefined 28 28 NE 15 24 30.06 1018 10 16.0934 N/A
6:53 pm 18:53 Sunny 62 16.7 31 -0.6 31 31 ENE 14 22 30.07 1018 10 16.0934 N/A
7:53 pm 19:53 Clear 57 13.9 32 undefined 39 39 ENE 13 20 30.09 1019 10 16.0934 N/A
8:53 pm 20:53 Clear 54 12.2 34 1.1 47 47 ENE 13 20 30.1 1019 10 16.0934 N/A
9:53 pm 21:53 Clear 49 9.4 34 1.1 56 56 ESE 8 13 30.13 1020 10 16.0934 N/A
10:53 pm 22:53 Clear 46 7.8 34 1.1 63 63 E 7 11 30.14 1021 10 16.0934 N/A
11:53 pm 23:53 Clear 44 6.7 35 1.7 71 71 E 8 13 30.14 1021 10 16.0934 N/A

Powered by AerisWeather